Golden Triangle, MS

11:55 PM CDT on June 26, 2017 (GMT -0500)
Golden Triangle Regional

Weather History for KGTR - July, 2013

Change the Weather History Date:

Sunday, July 14, 2013

  Actual Average Record
Temperature  
Mean Temperature 76 °F -  
Max Temperature 84 °F 89 °F 98 °F (2000)
Min Temperature 69 °F 68 °F 60 °F (2001)
Cooling Degree Days 12    
Growing Degree Days 26 (Base 50)    
Moisture  
Dew Point 70 °F    
Average Humidity 83    
Maximum Humidity 89    
Minimum Humidity 66    
Precipitation  
Precipitation 0.00 in - - ()
Sea Level Pressure  
Sea Level Pressure 30.02 in    
Wind  
Wind Speed 8 mph (ESE)    
Max Wind Speed 13 mph    
Max Gust Speed -    
Visibility 10 miles    
Events      
Averages and records for this station are not official NWS values.
T = Trace of Precipitation, MM = Missing Value Source: NWS Daily Summary

Daily Weather History Graph

Daily Weather History Graph

Search for Another Location

Airport or City:

Trip Planner

Search our weather history database for the weather conditions in past years. The results will help you decide how hot, cold, wet, or windy it might be!

Date:

Astronomy

Jul. 14, 2013 Rise Set
Actual Time 5:55 AM CDT 8:05 PM CDT
Civil Twilight 5:26 AM CDT 8:33 PM CDT
Nautical Twilight 4:52 AM CDT 9:07 PM CDT
Astronomical Twilight 4:14 AM CDT 9:45 PM CDT
Moon 11:50 AM CDT (7/14) 11:40 PM CDT (7/14)
Length of Visible Light 15h 06m
Length of Day
14h 10m
Waxing Crescent, 35% of the Moon is Illuminated
Jul 14
Waxing Crescent
Jul 15
First Quarter
Jul 22
Full
Jul 29
Last Quarter
Aug 6
New

Hourly Weather History & Observations

Time (CDT) Temp. Heat Index Dew Point Humidity Pressure Visibility Wind Dir Wind Speed Gust Speed Precip Events Conditions
12:15 AM 77.0 °F - 71.6 °F 83% 29.99 in 10.0 mi SSE 6.9 mph - N/A   Mostly Cloudy
12:35 AM 75.2 °F - 71.6 °F 89% 29.98 in 10.0 mi South 5.8 mph - N/A   Mostly Cloudy
12:55 AM 73.4 °F - 69.8 °F 88% 29.98 in 10.0 mi SSE 8.1 mph - N/A   Partly Cloudy
1:15 AM 73.4 °F - 69.8 °F 88% 29.98 in 10.0 mi SSE 9.2 mph - N/A   Clear
1:35 AM 73.4 °F - 69.8 °F 88% 29.98 in 10.0 mi SE 9.2 mph - N/A   Clear
1:55 AM 73.4 °F - 69.8 °F 88% 29.98 in 10.0 mi SE 9.2 mph - N/A   Clear
2:15 AM 73.4 °F - 69.8 °F 88% 29.99 in 10.0 mi SE 12.7 mph - N/A   Clear
2:35 AM 73.4 °F - 68.0 °F 83% 29.99 in 10.0 mi East 9.2 mph - N/A   Clear
2:55 AM 71.6 °F - 68.0 °F 88% 29.99 in 10.0 mi East 9.2 mph - N/A   Clear
3:15 AM 71.6 °F - 68.0 °F 88% 30.00 in 10.0 mi East 6.9 mph - N/A   Clear
3:35 AM 71.6 °F - 66.2 °F 83% 29.99 in 10.0 mi East 8.1 mph - N/A   Clear
3:55 AM 71.6 °F - 66.2 °F 83% 29.99 in 10.0 mi ESE 4.6 mph - N/A   Clear
4:15 AM 71.6 °F - 66.2 °F 83% 29.99 in 10.0 mi East 4.6 mph - N/A   Clear
4:35 AM 69.8 °F - 66.2 °F 88% 29.99 in 10.0 mi East 4.6 mph - N/A   Clear
4:55 AM 69.8 °F - 66.2 °F 88% 30.00 in 10.0 mi ESE 4.6 mph - N/A   Clear
5:15 AM 71.6 °F - 66.2 °F 83% 30.00 in 10.0 mi ESE 9.2 mph - N/A   Clear
5:35 AM 71.6 °F - 66.2 °F 83% 30.00 in 8.0 mi SE 10.4 mph - N/A   Clear
5:45 AM 71.6 °F - 66.2 °F 83% 30.00 in 10.0 mi SE 10.4 mph - N/A   Clear
6:45 AM 71.6 °F - 66.2 °F 83% 30.02 in 10.0 mi SSE 4.6 mph - N/A   Clear
7:45 AM 73.4 °F - 68.0 °F 83% 30.04 in 10.0 mi SE 9.2 mph - N/A   Partly Cloudy
8:45 AM 75.2 °F - 69.8 °F 83% 30.05 in 10.0 mi ESE 9.2 mph - N/A   Mostly Cloudy
10:45 AM 78.8 °F - 71.6 °F 78% 30.06 in 10.0 mi East 8.1 mph - N/A   Mostly Cloudy
11:45 AM 80.6 °F 84.6 °F 71.6 °F 74% 30.06 in 10.0 mi East 6.9 mph - N/A   Mostly Cloudy
12:45 PM 82.4 °F 87.2 °F 71.6 °F 70% 30.05 in 10.0 mi ESE 3.5 mph - N/A   Mostly Cloudy
1:45 PM 80.6 °F 84.6 °F 71.6 °F 74% 30.04 in 10.0 mi East 10.4 mph - N/A   Mostly Cloudy
2:45 PM 80.6 °F 84.6 °F 71.6 °F 74% 30.02 in 10.0 mi East 11.5 mph - N/A   Scattered Clouds
3:45 PM 82.4 °F 88.2 °F 73.4 °F 74% 30.02 in 10.0 mi East 8.1 mph - N/A   Scattered Clouds
5:45 PM 84.2 °F 89.6 °F 71.6 °F 66% 30.01 in 10.0 mi ENE 8.1 mph - N/A   Mostly Cloudy
6:45 PM 82.4 °F 87.2 °F 71.6 °F 70% 30.02 in 10.0 mi East 8.1 mph - N/A   Scattered Clouds
8:15 PM 78.8 °F - 71.6 °F 78% 30.05 in 10.0 mi East 5.8 mph - N/A   Mostly Cloudy
8:35 PM 78.8 °F - 71.6 °F 78% 30.05 in 10.0 mi East 6.9 mph - N/A   Partly Cloudy
8:55 PM 78.8 °F - 71.6 °F 78% 30.06 in 10.0 mi East 8.1 mph - N/A   Clear
9:15 PM 77.0 °F - 71.6 °F 83% 30.06 in 10.0 mi East 6.9 mph - N/A   Clear
9:35 PM 77.0 °F - 71.6 °F 83% 30.06 in 10.0 mi East 6.9 mph - N/A   Clear
9:55 PM 75.2 °F - 71.6 °F 89% 30.06 in 10.0 mi East 9.2 mph - N/A   Clear
10:15 PM 75.2 °F - 71.6 °F 89% 30.06 in 10.0 mi East 8.1 mph - N/A   Clear
10:35 PM 75.2 °F - 71.6 °F 89% 30.06 in 10.0 mi East 6.9 mph - N/A   Clear
10:55 PM 75.2 °F - 71.6 °F 89% 30.07 in 10.0 mi East 3.5 mph - N/A   Clear
11:15 PM 75.2 °F - 71.6 °F 89% 30.08 in 10.0 mi East 5.8 mph - N/A   Clear
11:35 PM 75.2 °F - 71.6 °F 89% 30.07 in 10.0 mi East 5.8 mph - N/A   Clear
11:55 PM 75.2 °F - 71.6 °F 89% 30.07 in 10.0 mi East 5.8 mph - N/A   Clear